Marion, VA

2:38 AM EST on February 21, 2018 (GMT -0500)
Mountain Empire

Weather History for KMKJ - October, 2012

Change the Weather History Date:

Tuesday, October 30, 2012

  Actual Average (KBLF) Record (KBLF)
Temperature  
Mean Temperature 35 °F -  
Max Temperature 37 °F 59 °F 76 °F (1996)
Min Temperature 33 °F 41 °F 26 °F (2017)
Degree Days  
Heating Degree Days 30    
Moisture  
Dew Point 32 °F    
Average Humidity 88    
Maximum Humidity 93    
Minimum Humidity 78    
Precipitation  
Precipitation 0.01 in - - ()
Sea Level Pressure  
Sea Level Pressure 29.46 in    
Wind  
Wind Speed 27 mph (West)    
Max Wind Speed 37 mph    
Max Gust Speed 51 mph    
Visibility 3 miles    
Events Rain , Snow    
Averages and records for this station are not official NWS values.
T = Trace of Precipitation, MM = Missing Value Source: NWS Daily Summary

Daily Weather History Graph

Daily Weather History Graph

Search for Another Location

Airport or City:

Trip Planner

Search our weather history database for the weather conditions in past years. The results will help you decide how hot, cold, wet, or windy it might be!

Date:

Astronomy

Oct. 30, 2012 Rise Set
Actual Time 7:47 AM EDT 6:29 PM EDT
Civil Twilight 7:21 AM EDT 6:56 PM EDT
Nautical Twilight 6:50 AM EDT 7:27 PM EDT
Astronomical Twilight 6:20 AM EDT 7:57 PM EDT
Moon 7:00 PM EDT (10/30) 8:31 AM EDT (10/30)
Length of Visible Light 11h 35m
Length of Day
10h 41m
Full, 99% of the Moon is Illuminated
Oct 30
Full
Nov 6
Last Quarter
Nov 13
New
Nov 20
First Quarter
Nov 28
Full

Hourly Weather History & Observations

Time (EDT) Temp. Windchill Dew Point Humidity Pressure Visibility Wind Dir Wind Speed Gust Speed Precip Events Conditions
12:15 AM 34.0 °F 19.9 °F 31.6 °F 91% 29.44 in 0.5 mi West 32.2 mph 41.4 mph N/A Snow Snow
12:35 AM 33.8 °F 18.8 °F 31.6 °F 92% 29.43 in 0.5 mi West 36.8 mph 47.2 mph N/A Snow Snow
12:55 AM 33.8 °F 19.9 °F 31.3 °F 90% 29.42 in 0.8 mi West 31.1 mph 47.2 mph N/A Snow Snow
1:15 AM 33.8 °F 19.9 °F 31.1 °F 90% 29.41 in 1.2 mi West 31.1 mph 42.6 mph N/A Snow Light Snow
1:35 AM 33.4 °F 19.4 °F 31.1 °F 91% 29.42 in 1.0 mi West 31.1 mph 44.9 mph N/A Snow Snow
1:55 AM 33.3 °F 18.5 °F 31.1 °F 92% 29.40 in 1.0 mi West 34.5 mph 47.2 mph N/A Snow Light Snow
2:15 AM 33.6 °F 19.4 °F 30.7 °F 89% 29.39 in 1.2 mi West 32.2 mph 41.4 mph N/A Snow Light Snow
2:35 AM 33.4 °F 19.4 °F 30.7 °F 90% 29.38 in 1.0 mi West 31.1 mph 44.9 mph N/A Snow Light Snow
2:55 AM 33.6 °F 19.8 °F 30.7 °F 89% 29.38 in 1.2 mi West 29.9 mph 41.4 mph N/A Snow Light Snow
3:55 AM 33.8 °F 20.8 °F 30.7 °F 89% 29.37 in 1.5 mi West 26.5 mph 40.3 mph N/A Snow Light Snow
4:15 AM 33.8 °F 21.6 °F 31.1 °F 90% 29.37 in 1.2 mi West 23.0 mph 34.5 mph N/A Snow Light Snow
4:55 AM 33.8 °F 19.9 °F 31.1 °F 90% 29.36 in 1.0 mi West 31.1 mph 39.1 mph N/A Snow Light Snow
5:15 AM 33.8 °F 19.9 °F 31.1 °F 90% 29.36 in 1.2 mi West 31.1 mph 44.9 mph N/A Snow Light Snow
5:35 AM 33.8 °F 20.3 °F 31.1 °F 90% 29.36 in 1.5 mi West 28.8 mph 40.3 mph N/A Snow Light Snow
5:55 AM 34.0 °F 20.1 °F 31.1 °F 89% 29.36 in 1.8 mi West 31.1 mph 42.6 mph N/A Snow Light Snow
6:15 AM 33.8 °F 20.5 °F 31.1 °F 90% 29.36 in 1.5 mi West 27.6 mph 39.1 mph N/A Snow Light Snow
6:35 AM 34.2 °F 21.8 °F 30.7 °F 87% 29.36 in 2.0 mi West 24.2 mph 50.6 mph N/A Snow Light Snow
6:55 AM 34.2 °F 21.5 °F 30.7 °F 87% 29.36 in 2.0 mi West 25.3 mph 41.4 mph N/A Snow Light Snow
7:15 AM 34.2 °F 22.1 °F 30.0 °F 85% 29.38 in 2.5 mi West 23.0 mph 41.4 mph N/A Snow Light Snow
7:35 AM 34.3 °F 21.5 °F 30.0 °F 84% 29.38 in 2.5 mi West 26.5 mph 39.1 mph N/A Snow Light Snow
8:15 AM 34.2 °F 22.1 °F 30.0 °F 85% 29.39 in 1.8 mi West 23.0 mph 36.8 mph N/A Snow Light Snow
8:35 AM 34.3 °F 21.8 °F 29.7 °F 83% 29.39 in 2.5 mi West 25.3 mph 36.8 mph N/A Snow Light Snow
8:55 AM 34.5 °F 22.5 °F 29.5 °F 82% 29.40 in 2.5 mi WSW 23.0 mph 35.7 mph N/A Snow Light Snow
9:35 AM 33.8 °F 22.2 °F 31.1 °F 90% 29.41 in 1.2 mi West 20.7 mph 27.6 mph N/A Snow Light Snow
9:55 AM 33.8 °F 22.8 °F 31.5 °F 91% 29.41 in 1.0 mi West 18.4 mph 29.9 mph N/A Snow Light Snow
10:15 AM 34.3 °F 22.0 °F 30.9 °F 87% 29.40 in 3.0 mi West 24.2 mph 32.2 mph N/A Snow Light Snow
10:35 AM 34.9 °F 22.5 °F 30.6 °F 84% 29.41 in 4.0 mi West 25.3 mph 40.3 mph N/A Rain Light Rain
10:55 AM 35.2 °F 24.1 °F 30.7 °F 84% 29.41 in 3.0 mi West 20.7 mph 33.4 mph 0.01 in Rain Light Rain
11:15 AM 35.8 °F 24.2 °F 30.6 °F 81% 29.41 in 3.0 mi West 23.0 mph 36.8 mph N/A Snow Light Snow
11:35 AM 35.8 °F 24.2 °F 30.9 °F 82% 29.42 in 3.0 mi West 23.0 mph 33.4 mph N/A Snow Light Snow
11:55 AM 36.0 °F 24.2 °F 30.9 °F 82% 29.42 in 3.0 mi West 24.2 mph 38.0 mph N/A Snow Light Snow
12:15 PM 36.1 °F 24.7 °F 30.7 °F 81% 29.42 in 4.0 mi West 23.0 mph 39.1 mph N/A   Haze
12:35 PM 36.3 °F 25.5 °F 31.1 °F 81% 29.43 in 5.0 mi West 20.7 mph 33.4 mph N/A   Haze
12:55 PM 36.5 °F 25.2 °F 30.6 °F 79% 29.43 in 5.0 mi West 23.0 mph 34.5 mph N/A   Haze
1:15 PM 36.5 °F 26.7 °F 30.7 °F 80% 29.43 in 4.0 mi West 17.3 mph 36.8 mph N/A   Haze
1:35 PM 36.5 °F 25.7 °F 31.1 °F 81% 29.43 in 5.0 mi West 20.7 mph 36.8 mph N/A   Haze
1:55 PM 36.7 °F 25.1 °F 30.9 °F 80% 29.43 in 4.0 mi West 24.2 mph 38.0 mph N/A   Haze
2:15 PM 37.0 °F 27.0 °F 31.1 °F 79% 29.44 in 5.0 mi West 18.4 mph 34.5 mph N/A   Haze
2:35 PM 37.4 °F 26.1 °F 31.1 °F 78% 29.44 in 5.0 mi West 24.2 mph 38.0 mph N/A   Haze
2:55 PM 37.4 °F 26.6 °F 31.1 °F 78% 29.44 in 7.0 mi West 21.9 mph 29.9 mph N/A   Overcast
3:15 PM 37.0 °F 25.9 °F 31.6 °F 81% 29.45 in 5.0 mi West 23.0 mph 32.2 mph N/A   Haze
3:35 PM 37.0 °F 27.0 °F 31.8 °F 81% 29.46 in 4.0 mi West 18.4 mph 28.8 mph N/A   Overcast
3:55 PM 37.4 °F 27.5 °F 32.0 °F 81% 29.47 in 3.0 mi West 18.4 mph 31.1 mph N/A   Haze
4:15 PM 36.9 °F 26.5 °F 32.2 °F 83% 29.47 in 3.0 mi West 19.6 mph 28.8 mph N/A   Overcast
4:35 PM 36.9 °F 26.2 °F 32.9 °F 86% 29.48 in 3.0 mi West 20.7 mph 25.3 mph N/A   Overcast
4:55 PM 36.5 °F 26.0 °F 33.1 °F 87% 29.49 in 2.5 mi West 19.6 mph 26.5 mph N/A Rain Light Rain
5:15 PM 36.5 °F 25.4 °F 33.3 °F 88% 29.49 in 2.5 mi West 21.9 mph 27.6 mph N/A Rain Light Rain
5:35 PM 36.1 °F 25.2 °F 33.8 °F 91% 29.50 in 2.5 mi West 20.7 mph 24.2 mph N/A Rain Light Rain
5:55 PM 36.0 °F 24.7 °F 33.8 °F 92% 29.51 in 3.0 mi West 21.9 mph 26.5 mph N/A Rain Light Rain
6:15 PM 36.0 °F 24.7 °F 33.8 °F 92% 29.51 in 5.0 mi WSW 21.9 mph 27.6 mph N/A   Light Drizzle
6:35 PM 36.0 °F 24.4 °F 33.8 °F 92% 29.52 in 5.0 mi West 23.0 mph 29.9 mph N/A   Drizzle
6:55 PM 35.8 °F 24.8 °F 33.8 °F 92% 29.54 in 5.0 mi West 20.7 mph 29.9 mph N/A Rain Light Rain
7:15 PM 35.8 °F 24.2 °F 33.8 °F 92% 29.54 in 5.0 mi West 23.0 mph 29.9 mph N/A Rain Light Rain
7:35 PM 35.8 °F 24.5 °F 33.8 °F 92% 29.55 in 5.0 mi West 21.9 mph 25.3 mph N/A Rain Light Rain
7:55 PM 35.8 °F 23.9 °F 34.0 °F 93% 29.56 in 5.0 mi West 24.2 mph 27.6 mph N/A Rain Light Rain
8:15 PM 35.6 °F 24.2 °F 33.8 °F 93% 29.56 in 5.0 mi West 21.9 mph 29.9 mph N/A Rain Light Rain
8:35 PM 35.6 °F 24.0 °F 33.8 °F 93% 29.57 in 5.0 mi West 23.0 mph 29.9 mph N/A   Drizzle
8:55 PM 35.6 °F 24.2 °F 33.8 °F 93% 29.58 in 7.0 mi West 21.9 mph 32.2 mph N/A   Drizzle
9:15 PM 35.6 °F 23.2 °F 33.8 °F 93% 29.58 in 4.0 mi West 26.5 mph 34.5 mph N/A Rain Light Rain
9:35 PM 35.6 °F 23.4 °F 33.8 °F 93% 29.58 in 7.0 mi West 25.3 mph 34.5 mph N/A   Light Drizzle
9:55 PM 35.6 °F 24.2 °F 33.8 °F 93% 29.60 in 7.0 mi West 21.9 mph 33.4 mph N/A   Drizzle
10:15 PM 35.6 °F 23.2 °F 33.8 °F 93% 29.59 in 7.0 mi West 26.5 mph 34.5 mph N/A   Light Drizzle
10:35 PM 35.6 °F 23.2 °F 33.8 °F 93% 29.59 in 4.0 mi West 26.5 mph 31.1 mph N/A   Drizzle
10:55 PM 35.6 °F 23.0 °F 33.8 °F 93% 29.59 in 4.0 mi West 27.6 mph 32.2 mph N/A Rain Light Rain
11:15 PM 35.6 °F 23.0 °F 33.8 °F 93% 29.58 in 3.0 mi West 27.6 mph 39.1 mph N/A Rain Light Rain
11:35 PM 35.6 °F 23.2 °F 33.8 °F 93% 29.58 in 4.0 mi West 26.5 mph 34.5 mph N/A Rain Light Rain
11:55 PM 35.6 °F 23.2 °F 33.8 °F 93% 29.59 in 4.0 mi West 26.5 mph 33.4 mph N/A Rain Light Rain